Location: Litvinovka
(48.6667°N, 34.3500°E)
Time: 11:20:24
(UTC+00:00)

Cosmos 1867 - Pass Details

Date: 18 September 2020
Orbit: 777 x 799 km, 65.0° (Epoch: 31 October)

Event Time Altitude Azimuth Distance (km) Brightness Sun altitude
Rises 16:44:47 0° 321° (NW) 3,313 7.7 -10.0°
Reaches altitude 10° 16:47:13 10° 323° (NW) 2,381 6.9 -10.4°
Maximum altitude 16:52:43 80° 50° (NE) 817 3.6 -11.3°
Enters shadow 16:57:54 12° 138° (SE) 2,258 5.4 -12.1°
